CAPE
0 0 0 0 0 0 0 0 0 0 0 0 0 0 0 0 0 0 0 11 25 52 93 101 89 128 19 8 160 237 127 125 105 61 22 37 94 45 46 77 74 80 26
0 0 0 0 0 0 0 0 0 0 0 0 0 0 0 0 0 0 0 1 60 53 9 3 13 117 136 160 125 82 124 85 25 27 118 78 92 15 38 47 39 1 5
0 0 0 0 0 0 4 35 2 33 3 0 0 0 0 0 0 0 0 0 0 0 0 0 0 0 135 262 159 111 104 115 111 186 125 29 27 27 21 11 17 9 0
0 0 0 0 0 0 0 6 14 13 34 15 0 0 0 0 0 0 0 0 0 0 0 0 0 3 50 137 221 248 199 139 116 94 40 26 14 0 18 25 23 0 1
0 0 0 0 0 0 0 0 0 2 0 8 9 8 1 4 0 0 0 0 0 0 0 0 0 0 0 4 51 82 168 101 100 65 29 16 2 6 50 19 29 0 0
0 0 0 0 0 0 0 0 0 0 0 0 0 0 1 0 0 0 7 0 0 0 0 0 0 0 0 0 23 27 114 115 95 69 7 13 16 4 8 36 0 0 10
0 0 0 0 0 0 0 0 0 0 0 0 0 0 0 0 0 0 0 0 0 0 0 0 0 0 0 0 4 34 85 59 20 6 2 32 5 0 7 21 0 0 0
0 0 0 0 0 0 0 0 0 0 0 0 0 0 0 0 0 0 0 0 0 0 0 0 0 0 0 0 0 1 101 143 21 0 89 28 6 12 3 4 0 0 0
0 0 0 0 0 0 0 0 0 0 0 0 0 0 0 0 0 0 0 0 0 0 0 0 0 0 0 0 0 0 13 180 33 1 60 78 25 16 0 0 0 0 0
0 0 0 0 0 0 0 0 0 0 0 0 0 0 0 0 0 0 0 0 0 0 0 0 0 0 0 0 0 0 4 142 49 1 0 0 0 0 0 0 0 0 0
0 0 0 0 0 0 0 0 0 0 0 0 0 0 0 0 0 0 0 0 0 0 0 0 0 0 0 0 0 0 0 110 19 13 11 0 0 0 0 0 0 0 0
0 0 0 0 0 0 0 0 0 0 0 0 0 0 0 0 0 0 0 0 0 0 0 0 0 0 0 0 0 0 0 1 1 2 14 0 0 0 0 0 0 0 0
0 0 0 0 0 0 0 0 0 0 0 0 0 0 0 0 0 0 0 0 0 0 0 0 0 0 0 0 0 0 0 1 6 4 0 0 0 0 0 0 0 0 0
1 1 0 0 0 0 0 0 0 0 0 0 0 0 0 0 0 0 0 0 0 0 0 0 0 0 0 0 0 0 1 3 1 11 1 0 0 0 0 0 0 1 0
2 2 2 2 2 2 1 1 2 0 0 0 0 0 1 1 0 0 0 0 0 0 0 0 0 0 0 0 0 0 4 1 1 0 0 0 0 0 0 0 0 1 1
3 5 10 5 2 2 2 2 0 0 0 0 0 0 0 0 0 0 0 0 0 0 0 0 0 0 0 0 0 1 3 9 15 0 0 0 0 0 0 1 2 0 0
4 7 8 16 13 14 3 3 4 1 0 0 0 0 0 0 0 0 0 0 0 0 0 0 0 0 0 0 2 3 2 3 0 0 0 0 0 0 0 4 2 0 0
5 5 2 3 3 3 5 5 17 16 1 2 0 0 0 0 0 0 0 0 0 0 0 0 0 0 0 2 2 10 13 1 0 0 0 0 0 0 0 1 2 1 4
4 4 4 4 4 3 3 9 17 29 1 2 2 0 0 0 0 0 0 0 0 0 0 0 0 0 1 3 6 0 0 1 0 0 0 0 0 0 0 1 0 3 4
7 7 8 7 4 1 3 3 4 27 2 3 2 1 0 0 0 0 0 0 0 0 0 0 0 2 1 1 0 0 1 0 0 0 0 0 0 0 0 1 0 0 0
9 10 3 9 0 1 3 3 2 2 2 3 3 1 0 0 1 0 0 0 0 0 0 1 1 1 0 1 1 1 0 0 0 0 0 0 0 0 0 0 0 0 0
9 2 67 0 0 3 3 2 2 3 4 4 1 0 0 1 0 0 0 0 0 0 2 1 1 0 0 0 0 0 0 0 0 0 0 0 0 0 0 0 0 0 0
0 2 4 7 2 0 8 4 3 2 2 2 2 0 0 0 0 0 0 0 2 1 1 0 1 1 2 0 0 0 0 0 0 0 0 1 0 0 0 0 0 0 0
3 4 3 2 2 3 2 0 1 1 3 0 0 0 0 0 3 1 0 0 0 0 2 2 1 0 0 0 0 0 0 0 0 0 0 0 0 0 1 6 1 0 0
3 3 3 3 3 2 2 2 2 2 2 1 1 1 3 3 2 1 1 1 1 0 0 0 0 0 0 0 0 0 0 0 0 0 2 2 3 0 1 0 0 0 0
2 1 2 2 4 4 4 3 3 3 4 5 5 5 5 4 4 3 2 0 0 0 0 0 0 0 0 0 0 0 0 0 0 0 1 1 0 0 0 0 0 0 0
CIN
-0 -0 -0 -0 -0 -0 -0 -0 -0 -0 -0 -0 -0 -0 -0 -0 -0 -0 -0 -254 -203 -178 -170 -113 -134 -99 -153 -48 -36 -42 -32 -32 -29 -27 -120 -173 -189 -160 -233 -266 -268 -201 -208
-0 -0 -0 -0 -0 -0 -0 -0 -0 -0 -0 -0 -0 -0 -0 -0 -0 -0 -0 -25 -119 -150 -275 -55 -176 -133 -99 -69 -101 -92 -42 -26 -44 -41 -42 -125 -141 -229 -243 -270 -252 -12 -147
-0 -0 -0 -0 -0 -88 -256 -235 -64 -158 -30 -0 -0 -0 -0 -0 -0 -0 -0 -0 -0 -0 -0 -0 -0 -0 -99 -62 -109 -73 -70 -56 -29 -22 -28 -106 -152 -255 -264 -249 -267 -153 -0
-0 -0 -0 -0 -0 -0 -0 -245 -211 -170 -147 -143 -0 -0 -0 -0 -0 -0 -0 -0 -0 -0 -0 -0 -0 -60 -105 -82 -82 -38 -50 -46 -35 -23 -46 -72 -86 -8 -246 -190 -182 -0 -20
-0 -0 -0 -0 -0 -0 -0 -0 -0 -43 -0 -161 -164 -157 -23 -91 -0 -0 -0 -0 -0 -0 -0 -0 -0 -11 -0 -29 -131 -107 -42 -22 -34 -23 -33 -54 -75 -105 -124 -194 -121 -0 -0
-0 -0 -0 -0 -0 -0 -0 -0 -0 -0 -0 -0 -0 -0 -31 -0 -0 -0 -104 -0 -0 -0 -0 -0 -0 -0 -0 -0 -158 -136 -87 -45 -33 -29 -68 -66 -83 -153 -162 -131 -0 -0 -42
-0 -0 -0 -0 -0 -0 -0 -0 -0 -0 -0 -0 -0 -0 -0 -0 -0 -0 -0 -0 -0 -0 -0 -0 -0 -0 -0 -0 -112 -124 -101 -80 -101 -75 -31 -67 -86 -0 -106 -138 -0 -0 -0
-0 -0 -0 -0 -0 -0 -0 -0 -0 -0 -0 -0 -0 -0 -0 -0 -0 -0 -0 -0 -0 -0 -0 -0 -0 -0 -0 -0 -0 -78 -87 -51 -80 -0 -50 -69 -57 -136 -95 -42 -0 -0 -0
-0 -0 -0 -0 -0 -0 -0 -0 -0 -0 -0 -0 -0 -0 -0 -0 -0 -0 -0 -0 -0 -0 -0 -0 -0 -0 -0 -0 -0 -0 -224 -46 -102 -157 -77 -89 -153 -186 -0 -0 -0 -0 -0
-0 -0 -0 -0 -0 -0 -0 -0 -0 -0 -0 -0 -0 -0 -0 -0 -0 -0 -0 -0 -0 -0 -0 -0 -0 -0 -0 -0 -0 -0 -186 -89 -119 -14 -17 -0 -0 -0 -0 -0 -0 -0 -0
-0 -0 -0 -0 -0 -0 -0 -0 -0 -0 -0 -0 -0 -0 -0 -0 -0 -0 -0 -0 -0 -0 -0 -0 -0 -0 -0 -0 -0 -0 -0 -63 -173 -212 -181 -0 -0 -0 -0 -0 -0 -0 -0
-0 -0 -0 -0 -0 -0 -0 -0 -0 -0 -0 -0 -0 -0 -0 -0 -0 -0 -0 -0 -0 -0 -0 -0 -0 -0 -0 -0 -0 -0 -0 -70 -0 -0 -176 -0 -0 -0 -0 -0 -0 -0 -0
-1 -0 -0 -0 -0 -0 -0 -0 -0 -0 -0 -0 -0 -0 -0 -0 -0 -0 -0 -0 -0 -0 -0 -0 -0 -0 -0 -0 -0 -0 -0 -0 -161 -140 -38 -0 -0 -0 -0 -0 -0 -0 -0
-0 -0 -0 -0 -0 -0 -0 -0 -0 -0 -0 -0 -0 -0 -0 -0 -0 -0 -0 -0 -0 -0 -0 -0 -0 -0 -0 -0 -0 -0 -0 -0 -0 -136 -102 -0 -0 -0 -0 -0 -0 -0 -0
-0 -0 -0 -0 -0 -0 -0 -0 -0 -0 -0 -0 -0 -0 -0 -3 -0 -0 -0 -0 -0 -0 -0 -0 -0 -0 -0 -0 -0 -0 -0 -0 -0 -10 -12 -0 -0 -0 -0 -0 -0 -0 -0
-0 -0 -0 -0 -0 -0 -0 -0 -0 -0 -0 -0 -0 -0 -0 -0 -0 -0 -0 -0 -0 -0 -0 -0 -0 -0 -0 -0 -0 -0 -0 -102 -132 -0 -0 -0 -0 -0 -0 -0 -1 -0 -0
-0 -0 -0 -0 -0 -0 -0 -0 -0 -0 -0 -0 -0 -0 -0 -0 -0 -0 -0 -0 -0 -0 -0 -0 -0 -0 -0 -0 -0 -0 -0 -4 -0 -0 -0 -0 -0 -0 -1 -7 -9 -0 -0
-0 -0 -0 -0 -0 -0 -0 -0 -0 -0 -0 -0 -0 -0 -0 -0 -0 -0 -0 -0 -0 -0 -0 -0 -0 -0 -0 -0 -42 -82 -138 -0 -0 -0 -0 -0 -0 -0 -0 -4 -7 -7 -9
-0 -0 -0 -0 -0 -0 -0 -2 -0 -0 -0 -0 -0 -0 -0 -0 -0 -0 -0 -0 -0 -0 -0 -0 -0 -0 -0 -0 -56 -0 -70 -0 -0 -0 -0 -0 -5 -0 -0 -5 -7 -8 -11
-0 -0 -0 -0 -0 -0 -0 -0 -0 -0 -0 -0 -0 -0 -0 -0 -0 -0 -0 -0 -0 -0 -0 -0 -0 -0 -0 -0 -0 -0 -0 -0 -0 -0 -0 -9 -18 -22 -3 -16 -0 -0 -0
-0 -0 -0 -24 -0 -0 -0 -0 -0 -0 -0 -0 -0 -0 -0 -0 -0 -0 -0 -0 -0 -0 -0 -0 -0 -3 -8 -0 -0 -0 -0 -0 -0 -0 -0 -0 -1 -26 -0 -0 -0 -0 -2
-0 -0 -13 -0 -1 -0 -0 -0 -0 -0 -0 -0 -0 -0 -0 -0 -0 -0 -0 -0 -0 -0 -0 -0 -0 -0 -0 -0 -0 -0 -0 -0 -0 -0 -0 -0 -12 -0 -0 -0 -0 -0 -0
-0 -0 -25 -53 -3 -0 -0 -0 -0 -0 -0 -0 -0 -0 -3 -0 -0 -0 -0 -0 -0 -0 -0 -0 -0 -0 -0 -0 -0 -0 -0 -0 -0 -0 -0 -45 -0 -0 -0 -0 -8 -0 -9
-0 -0 -0 -0 -0 -0 -0 -0 -0 -0 -0 -0 -0 -0 -0 -0 -0 -0 -0 -0 -0 -0 -0 -0 -0 -0 -0 -0 -0 -76 -13 -0 -0 -0 -8 -0 -0 -0 -6 -15 -23 -0 -0
-0 -0 -0 -0 -0 -0 -0 -0 -0 -0 -0 -0 -0 -0 -0 -0 -0 -0 -0 -0 -0 -0 -0 -0 -0 -0 -0 -0 -34 -0 -0 -0 -0 -0 -78 -74 -64 -9 -43 -0 -0 -0 -0
-0 -0 -0 -0 -0 -0 -0 -0 -0 -0 -0 -0 -0 -0 -0 -0 -0 -0 -0 -0 -0 -0 -0 -0 -0 -0 -0 -0 -0 -0 -0 -0 -0 -0 -129 -74 -84 -0 -0 -0 -0 -0 -0
Wind_Speed
26 24 26 23 21 19 20 21 23 24 24 24 24 26 28 28 28 29 30 30 32 34 34 36 35 41 41 44 45 39 40 38 42 44 35 32 35 32 24 20 16 12 10
29 31 34 30 29 27 19 19 21 22 24 24 23 23 25 26 27 29 30 30 31 35 37 39 39 38 38 39 41 40 40 35 38 41 36 35 33 27 22 22 15 14 11
29 35 38 36 36 34 29 24 22 19 21 23 23 23 23 23 22 23 25 27 29 31 34 37 40 41 39 39 39 39 37 34 32 34 35 26 27 25 21 19 16 13 12
31 36 41 42 42 37 37 30 23 24 22 19 22 24 24 24 24 24 24 26 29 31 32 35 37 40 42 41 39 41 37 33 27 30 27 27 26 24 20 20 16 15 13
33 33 35 42 36 37 39 37 33 27 24 25 24 23 23 24 25 25 25 26 28 30 32 33 34 35 41 42 41 41 39 37 32 29 28 26 25 21 21 20 13 14 16
39 40 38 37 37 37 38 38 38 37 35 31 28 25 25 26 26 23 24 26 27 28 31 31 33 35 41 42 42 43 40 35 34 29 28 24 25 17 19 16 10 13 16
44 43 42 42 41 40 37 39 42 42 37 38 35 30 25 24 23 25 26 27 29 29 31 33 34 35 39 41 41 42 41 33 32 30 28 10 19 20 17 15 9 11 13
49 46 42 43 44 41 43 44 40 40 42 41 36 32 30 28 26 26 28 31 31 31 31 34 34 36 37 40 41 41 40 33 32 34 31 26 6 8 10 7 6 11 15
54 51 49 46 46 43 44 42 42 40 41 40 35 34 32 33 31 32 31 33 35 33 32 34 36 37 39 40 42 42 40 38 29 35 29 20 11 5 3 6 9 8 10
53 53 52 51 48 47 49 46 43 42 43 41 40 38 37 37 34 36 33 35 38 37 35 35 39 37 39 39 41 40 41 39 31 31 20 18 12 6 2 2 3 5 10
52 50 51 51 51 50 49 47 47 47 46 44 42 39 40 44 41 38 36 37 39 40 39 37 39 38 40 40 40 41 40 37 28 22 16 14 10 7 5 5 5 5 6
54 55 53 50 49 54 56 55 51 49 48 49 49 49 50 49 45 43 39 38 38 40 42 39 40 38 40 41 41 41 41 34 22 18 13 14 12 10 9 7 8 8 8
32 37 46 46 45 46 48 50 52 51 52 51 51 53 54 52 50 47 42 39 39 41 40 39 41 39 39 41 41 40 38 30 22 19 14 13 13 12 10 10 11 10 8
22 24 28 33 39 41 40 39 42 43 44 48 50 51 51 49 49 46 44 43 41 40 40 40 40 40 39 40 38 36 32 24 19 13 12 12 11 11 10 9 8 6 7
25 26 31 42 37 30 36 39 41 40 37 39 39 42 46 45 44 39 39 40 40 40 39 40 42 38 37 36 32 30 26 18 15 11 9 11 11 9 8 6 6 6 8
23 19 19 21 27 24 30 35 28 37 34 30 33 28 35 47 36 35 36 37 38 38 39 42 43 38 36 34 33 29 23 17 13 10 12 12 9 8 5 5 6 6 7
20 20 21 22 22 19 20 25 26 27 32 43 29 33 26 35 40 32 34 33 38 38 46 46 42 38 37 33 33 25 25 20 16 15 13 11 7 5 3 5 7 7 8
15 15 19 20 21 18 15 19 24 28 26 24 48 32 28 40 37 37 34 29 39 41 43 43 39 37 35 32 28 29 24 23 23 13 11 7 4 3 3 6 7 6 7
13 8 6 10 10 9 8 11 11 24 31 38 38 39 30 26 24 30 26 38 41 42 40 38 37 36 32 25 18 17 26 25 17 10 8 5 4 2 3 6 5 6 8
3 3 4 5 6 13 9 16 31 39 41 44 43 42 34 33 39 41 42 38 37 36 37 39 35 25 21 19 27 29 26 18 12 10 8 6 2 2 4 4 6 7 10
2 7 7 19 20 21 21 26 32 35 36 37 37 20 31 28 46 49 40 37 36 37 37 37 20 18 23 30 27 22 17 13 10 7 5 4 3 3 5 6 7 8 8
8 12 24 29 28 27 28 28 31 34 33 31 24 34 49 44 42 41 40 38 38 39 32 19 15 31 31 27 22 16 12 9 7 4 2 2 3 3 4 5 5 7 6
15 28 28 30 34 38 40 40 41 42 42 43 45 48 47 44 43 42 40 39 34 20 14 22 29 26 24 20 15 10 7 6 5 5 2 0 1 2 3 4 4 5 6
23 32 35 34 35 36 37 40 42 43 44 44 46 45 42 40 42 39 27 19 16 19 24 22 22 18 12 10 8 6 5 5 4 2 5 5 5 5 3 4 5 6 7
7 26 29 32 38 39 39 36 34 33 36 41 40 37 33 27 21 18 15 12 19 19 16 13 12 9 9 9 9 7 7 6 4 3 2 4 5 6 5 5 7 8 9
24 18 16 26 34 21 25 27 23 24 23 23 22 22 18 16 15 15 15 17 15 13 12 10 9 9 9 10 10 9 8 7 5 6 5 7 7 8 9 10 10 10 11
Wind_Direction
263 261 265 267 272 276 282 287 288 288 287 284 283 280 278 278 280 281 282 283 282 282 283 281 278 276 286 282 281 283 286 285 289 292 302 307 295 305 315 307 311 323 325
266 267 266 270 274 278 281 284 285 285 286 285 286 286 285 283 282 281 281 283 284 280 280 280 280 284 287 282 283 284 286 286 287 292 301 295 293 303 312 303 311 319 324
268 271 271 270 272 276 279 283 283 282 284 285 284 286 287 288 288 287 285 285 286 286 284 282 283 281 287 287 284 281 285 290 285 288 299 303 297 306 305 301 310 317 322
286 277 270 269 268 273 273 276 274 275 276 279 282 283 283 284 286 288 289 289 287 289 288 287 286 283 281 284 283 279 282 286 291 287 296 296 300 295 296 296 307 311 314
287 287 280 269 276 275 272 273 272 270 267 272 275 278 281 282 284 284 287 288 291 292 290 291 292 291 280 274 276 275 278 279 289 286 289 296 299 294 290 299 303 310 315
285 281 283 283 282 279 275 272 270 269 270 268 268 271 275 277 280 282 285 287 289 292 291 294 294 294 281 271 272 268 274 279 283 280 285 293 292 291 292 299 303 308 314
283 282 281 281 280 280 279 273 268 267 269 268 266 267 265 268 271 276 279 284 286 288 290 293 296 294 284 272 271 269 272 278 277 273 282 255 285 284 292 296 294 309 316
280 282 285 282 280 280 275 271 272 270 265 265 268 266 266 265 265 269 273 277 282 285 288 288 293 293 290 276 269 268 271 275 273 267 269 276 250 283 282 289 296 314 322
280 281 282 281 280 279 276 273 271 270 267 268 269 268 265 266 264 266 268 273 275 280 284 286 287 291 288 283 267 266 264 268 271 260 265 277 282 275 264 304 311 319 321
281 281 280 279 278 276 273 271 270 270 269 269 269 269 267 267 265 265 264 269 271 275 280 283 281 288 286 288 268 260 256 249 261 262 268 275 283 278 191 267 311 318 329
283 282 281 279 277 274 273 272 269 268 268 267 268 268 266 264 265 263 263 266 268 271 274 277 278 284 283 284 273 260 261 267 269 273 270 276 283 289 304 320 328 330 335
280 280 282 281 278 274 270 268 267 267 266 266 266 266 264 263 262 261 260 259 264 266 270 272 274 279 280 279 271 259 259 264 266 269 262 266 275 292 305 321 327 330 341
295 293 287 284 282 278 274 269 266 265 264 264 264 264 263 262 260 257 258 257 258 263 267 267 268 273 278 275 269 260 261 258 260 257 259 266 279 290 303 317 324 332 343
272 285 290 289 286 281 277 272 267 263 263 264 263 262 262 259 257 256 254 253 254 257 261 262 264 268 272 273 270 260 256 255 255 255 259 271 275 284 301 322 330 346 341
297 292 284 289 287 282 277 271 267 264 261 260 259 258 256 254 252 251 248 248 249 252 256 257 257 264 269 272 267 261 252 249 246 263 238 253 268 287 304 321 333 332 340
257 265 272 261 288 279 279 275 255 261 259 238 254 252 256 250 247 244 244 243 244 245 246 247 249 258 265 266 251 248 247 246 251 229 240 255 269 282 298 316 318 336 347
265 280 296 300 291 268 256 265 264 261 229 253 239 247 242 247 237 235 238 239 239 238 238 239 246 254 256 254 243 243 237 245 233 235 247 257 267 284 297 307 309 322 335
286 303 314 255 246 248 259 271 265 264 251 228 237 196 200 238 231 230 232 231 229 231 231 234 242 249 244 239 236 227 239 230 230 237 245 252 264 270 306 306 308 331 326
284 287 287 249 252 251 223 210 246 255 233 225 222 223 225 218 216 220 217 222 221 223 227 232 236 233 235 236 235 229 221 222 228 232 240 250 258 285 322 310 327 324 319
305 306 273 238 102 80 121 189 170 184 195 192 195 201 211 212 212 211 209 213 214 220 223 220 222 230 223 222 211 215 219 220 226 234 240 251 257 315 305 326 332 328 316
95 77 82 100 97 109 120 130 149 165 179 188 193 194 146 203 190 187 200 206 211 211 210 210 217 212 211 204 212 212 214 221 225 231 231 251 283 300 303 321 326 328 330
113 106 97 97 99 114 123 134 143 151 163 171 177 150 157 178 183 189 194 197 196 196 205 207 196 198 201 209 212 213 215 214 214 201 218 272 284 298 321 347 358 339 334
113 96 103 103 106 105 110 117 124 131 137 144 149 154 160 166 171 174 178 184 192 189 182 194 196 203 206 207 210 204 178 161 146 124 137 165 345 18 41 33 354 345 353
114 99 97 106 108 113 117 120 123 127 132 136 142 149 155 162 164 168 172 166 164 182 190 193 193 194 189 185 182 179 150 128 124 160 116 93 65 71 44 13 351 0 359
94 115 116 116 113 115 120 128 131 132 136 135 142 149 153 156 153 151 153 146 175 174 174 176 174 156 149 145 132 121 114 122 154 129 110 76 66 61 57 44 45 34 33
124 131 130 124 122 130 131 132 136 137 136 136 140 143 132 134 133 135 149 157 156 159 159 165 156 132 122 118 112 115 116 116 112 98 83 75 71 64 67 65 57 47 45